CW3577 Weather Reports


Display with metric or nautical units.
time (UTC)temp
F
wind
direction
speed
MPH
gust
MPH
rain 1hr
in
rain 24hr
in
rain mn
in
humidity
%
barometer
mb
20260508030029 49 290 3.0 7.0 0.00 0.06 0.04 51 1008.8
20260508024551 49 337 0.0 7.0 0.00 0.06 0.04 50 1008.8
20260508023016 49 259 0.0 5.0 0.00 0.06 0.04 51 1008.7
20260508021549 50 251 1.0 7.0 0.00 0.06 0.04 50 1008.8
20260508020001 50 219 0.0 8.0 0.00 0.06 0.04 50 1008.7
20260508014529 50 235 1.0 6.0 0.00 0.06 0.04 50 1008.6
20260508013051 50 251 1.0 10.0 0.00 0.06 0.04 49 1008.4
20260508011524 51 247 0.0 4.0 0.00 0.06 0.04 48 1008.1
20260508010056 52 226 0.0 5.0 0.00 0.06 0.04 46 1008.0
20260508004506 52 279 1.0 5.0 0.00 0.06 0.04 45 1007.7
20260508003027 53 301 0.0 4.0 0.00 0.06 0.04 43 1007.6
20260508001558 54 293 2.0 9.0 0.00 0.06 0.04 41 1007.4
20260508000018 55 271 2.0 10.0 0.00 0.07 0.04 40 1007.3
20260507234543 56 292 2.0 10.0 0.00 0.07 0.04 38 1007.1
20260507233015 57 260 4.0 13.0 0.00 0.07 0.04 36 1007.0
20260507231534 58 232 3.0 9.0 0.00 0.07 0.04 34 1006.9
20260507230005 58 279 2.0 11.0 0.00 0.16 0.04 34 1006.7
20260507224527 59 291 5.0 14.0 0.00 0.16 0.04 32 1006.7
20260507223143 59 290 2.0 13.0 0.00 0.16 0.04 34 1006.4
20260507221512 60 281 6.0 15.0 0.00 0.16 0.04 32 1006.3
20260507220042 61 312 6.0 11.0 0.00 0.19 0.04 33 1006.2
20260507214504 60 319 6.0 14.0 0.00 0.19 0.04 33 1006.2
20260507213035 61 215 5.0 17.0 0.00 0.19 0.04 32 1006.1
20260507211555 63 269 7.0 16.0 0.00 0.19 0.04 31 1006.1
20260507210027 63 298 7.0 23.0 0.00 0.21 0.04 31 1006.1
20260507204543 63 294 3.0 16.0 0.00 0.21 0.04 30 1006.1
20260507203027 63 297 5.0 17.0 0.00 0.21 0.04 34 1005.9
20260507201541 64 348 7.0 17.0 0.00 0.21 0.04 31 1005.8
20260507200110 62 286 2.0 18.0 0.00 0.23 0.04 33 1006.0
20260507194524 64 5 8.0 19.0 0.00 0.23 0.04 31 1006.0
20260507193048 64 257 4.0 17.0 0.00 0.23 0.04 33 1006.0
20260507191510 63 294 6.0 13.0 0.00 0.23 0.04 31 1006.3
20260507190036 64 211 4.0 12.0 0.00 0.25 0.04 35 1006.4
20260507184554 63 283 4.0 15.0 0.00 0.25 0.04 32 1006.6
20260507183031 63 281 6.0 13.0 0.00 0.25 0.04 35 1006.9
20260507181546 63 333 7.0 21.0 0.00 0.25 0.04 33 1006.9
20260507180015 63 225 7.0 19.0 0.00 0.25 0.04 30 1007.0
20260507174551 63 309 5.0 17.0 0.00 0.25 0.04 31 1007.0
20260507173100 63 315 11.0 16.0 0.00 0.25 0.04 32 1006.8
20260507173008 63 321 11.0 16.0 0.00 0.25 0.04 34 1006.8
20260507171523 62 284 5.0 18.0 0.00 0.25 0.04 38 1006.9
20260507170050 62 306 9.0 20.0 0.00 0.25 0.04 35 1007.1
20260507164512 62 242 2.0 15.0 0.00 0.25 0.04 37 1007.2
20260507163042 61 221 9.0 17.0 0.00 0.25 0.04 39 1007.5
20260507161609 61 284 4.0 14.0 0.00 0.25 0.04 47 1007.8
20260507160022 61 275 7.0 15.0 0.00 0.25 0.04 45 1007.8
20260507154542 61 184 8.0 17.0 0.00 0.25 0.04 41 1007.9
20260507153004 61 200 4.0 12.0 0.00 0.25 0.04 50 1007.8
20260507151529 58 332 5.0 14.0 0.00 0.25 0.04 53 1008.1
20260507150055 60 338 5.0 12.0 0.00 0.25 0.04 52 1008.2
20260507144522 60 318 4.0 9.0 0.00 0.25 0.04 52 1008.3
20260507143045 57 317 2.0 11.0 0.00 0.25 0.04 61 1008.3
20260507141507 60 273 4.0 12.0 0.00 0.25 0.04 56 1008.2
20260507140033 59 226 3.0 12.0 0.00 0.25 0.04 55 1008.2
20260507134611 60 252 2.0 12.0 0.00 0.25 0.04 55 1008.1
20260507133018 58 350 3.0 9.0 0.00 0.25 0.04 62 1008.2
20260507131539 58 298 5.0 10.0 0.00 0.25 0.04 58 1008.4
20260507130107 57 297 3.0 9.0 0.00 0.25 0.04 60 1008.6
20260507124523 57 9 3.0 8.0 0.00 0.25 0.04 65 1008.7
20260507123046 56 324 5.0 9.0 0.00 0.25 0.04 68 1008.7
20260507121504 55 325 3.0 6.0 0.00 0.25 0.04 71 1008.9
20260507120032 53 322 3.0 8.0 0.00 0.25 0.04 74 1008.8
20260507114550 50 284 1.0 9.0 0.00 0.25 0.04 81 1008.7
20260507113059 49 290 1.0 7.0 0.00 0.25 0.04 82 1008.7
20260507113001 49 271 3.0 7.0 0.00 0.25 0.04 82 1008.7
20260507111526 49 9 2.0 4.0 0.00 0.25 0.04 84 1008.5
20260507110047 48 355 0.0 2.0 0.00 0.25 0.04 84 1008.5
20260507104516 48 355 1.0 4.0 0.00 0.25 0.04 84 1008.4
20260507103036 48 348 0.0 3.0 0.00 0.25 0.04 84 1008.0
20260507101601 48 317 2.0 5.0 0.00 0.25 0.04 83 1007.8
20260507100023 48 327 2.0 7.0 0.00 0.25 0.04 83 1007.9
20260507094540 48 309 2.0 8.0 0.00 0.25 0.04 83 1007.9
20260507093007 48 311 0.0 9.0 0.00 0.25 0.04 84 1008.0
20260507091529 48 289 1.0 5.0 0.00 0.25 0.04 85 1008.1
20260507090053 48 305 1.0 10.0 0.00 0.25 0.04 85 1008.4
20260507084509 48 283 2.0 6.0 0.01 0.25 0.04 86 1008.0
20260507083040 49 286 1.0 7.0 0.02 0.25 0.04 86 1007.9
20260507081600 49 311 0.0 2.0 0.02 0.25 0.04 87 1007.8
20260507080018 50 313 1.0 7.0 0.02 0.25 0.04 84 1007.6
20260507074541 50 298 4.0 9.0 0.01 0.24 0.03 83 1007.9
20260507073010 51 290 8.0 12.0 0.00 0.23 0.02 82 1008.0
20260507071535 51 271 2.0 5.0 0.00 0.23 0.02 88 1007.3
20260507070050 51 269 0.0 4.0 0.00 0.23 0.02 88 1007.0
20260507064515 51 263 0.0 2.0 0.00 0.23 0.02 87 1006.9
20260507063033 52 263 0.0 2.0 0.00 0.23 0.02 87 1007.2
20260507061557 51 263 1.0 3.0 0.00 0.23 0.02 86 1007.0
20260507060023 52 290 2.0 5.0 0.00 0.23 0.02 85 1007.2
20260507054546 52 320 2.0 8.0 0.00 0.23 0.02 85 1007.3
20260507053005 52 325 4.0 12.0 0.00 0.23 0.02 86 1007.7
20260507051536 52 321 1.0 9.0 0.01 0.23 0.02 86 1007.4
20260507050057 53 306 3.0 9.0 0.02 0.23 0.02 87 1007.7
20260507044516 54 307 2.0 9.0 0.04 0.23 0.02 88 1007.2
20260507043030 55 327 5.0 13.0 0.04 0.23 0.02 89 1007.3
20260507041556 56 284 1.0 7.0 0.03 0.22 0.01 89 1007.1
20260507040019 56 302 3.0 8.0 0.02 0.21 0.21 88 1007.4
20260507034537 57 315 3.0 9.0 0.00 0.19 0.19 86 1007.2
20260507033055 57 323 2.0 16.0 0.00 0.19 0.19 86 1006.7
20260507031525 59 332 4.0 10.0 0.00 0.19 0.19 92 1006.3